Location: Crescent
(42.8242°N, 73.7329°W)
Time: 20:49:19
(UTC+00:00)

SR - Pass Details

Date: 18 February 2026
Orbit: 573 x 848 km, 66.7° (Epoch: 6 March)

Event Time Altitude Azimuth Distance (km) Brightness Sun altitude
Rises 07:47:35 0° 155° (SSE) 2,764 - -43.6°
Reaches altitude 10° 07:51:40 10° 115° (ESE) 1,889 - -42.9°
Maximum altitude 07:52:29 11° 104° (ESE) 1,864 - -42.8°
Drops below altitude 10° 07:53:19 10° 93° (E) 1,904 - -42.7°
Exits shadow 07:55:24 - 69° (ENE) 2,259 ? -42.3°
Sets 07:57:31 0° 53° (NE) 2,860 ? -42.0°
